| time (UTC) | temp F | wind direction | speed MPH | gust MPH | rain 1hr in | rain 24hr in | rain mn in | humidity % | barometer mb |
| 20260504050001 | 47 | 335 | 18.0 | 0.0 | 0.00 | 0.00 | 0.00 | 55 | 998.8 |
| 20260504044500 | 47 | 315 | 19.0 | 0.0 | 0.00 | 0.00 | 0.00 | 53 | 998.7 |
| 20260504043110 | 49 | 315 | 19.0 | 0.0 | 0.00 | 0.00 | 0.00 | 54 | 998.6 |
| 20260504041600 | 51 | 346 | 23.0 | 0.0 | 0.00 | 0.00 | 0.00 | 53 | 998.4 |
| 20260504040106 | 52 | 312 | 18.0 | 0.0 | 0.00 | 0.00 | 0.00 | 48 | 997.9 |
| 20260504034601 | 53 | 319 | 18.0 | 0.0 | 0.00 | 0.00 | 0.00 | 48 | 997.6 |
| 20260504033100 | 53 | 315 | 15.0 | 0.0 | 0.00 | 0.00 | 0.00 | 50 | 997.4 |
| 20260504031604 | 53 | 313 | 12.0 | 0.0 | 0.00 | 0.00 | 0.00 | 51 | 997.2 |
| 20260504030057 | 52 | 313 | 11.0 | 0.0 | 0.00 | 0.00 | 0.00 | 58 | 997.4 |
| 20260504024558 | 51 | 292 | 13.0 | 0.0 | 0.00 | 0.00 | 0.00 | 64 | 997.5 |
| 20260504023058 | 52 | 317 | 20.0 | 0.0 | 0.00 | 0.00 | 0.00 | 64 | 997.6 |
| 20260504021556 | 53 | 319 | 17.0 | 0.0 | 0.00 | 0.00 | 0.00 | 62 | 997.6 |
| 20260504020055 | 52 | 325 | 17.0 | 0.0 | 0.00 | 0.00 | 0.00 | 66 | 997.4 |
| 20260504014601 | 52 | 360 | 21.0 | 0.0 | 0.00 | 0.00 | 0.00 | 65 | 997.4 |
| 20260504013107 | 52 | 355 | 24.0 | 0.0 | 0.00 | 0.00 | 0.00 | 65 | 996.8 |
| 20260504011554 | 56 | 360 | 24.0 | 0.0 | 0.00 | 0.00 | 0.00 | 57 | 996.4 |
| 20260504010112 | 59 | 348 | 24.0 | 0.0 | 0.00 | 0.00 | 0.00 | 49 | 996.0 |
| 20260504004554 | 65 | 348 | 14.0 | 0.0 | 0.00 | 0.00 | 0.00 | 41 | 995.4 |
| 20260504003053 | 68 | 311 | 6.0 | 0.0 | 0.00 | 0.00 | 0.00 | 36 | 994.3 |
| 20260504001601 | 68 | 288 | 6.0 | 0.0 | 0.00 | 0.00 | 0.00 | 35 | 994.4 |
| 20260504000052 | 68 | 310 | 6.0 | 0.0 | 0.00 | 0.00 | 0.00 | 40 | 994.7 |
| 20260503234551 | 68 | 302 | 7.0 | 0.0 | 0.00 | 0.00 | 0.00 | 41 | 994.7 |
| 20260503233059 | 69 | 234 | 5.0 | 0.0 | 0.00 | 0.00 | 0.00 | 40 | 994.6 |
| 20260503231548 | 69 | 297 | 6.0 | 0.0 | 0.00 | 0.00 | 0.00 | 42 | 994.7 |
| 20260503230047 | 68 | 273 | 7.0 | 0.0 | 0.00 | 0.00 | 0.00 | 42 | 995.2 |
| 20260503224545 | 68 | 274 | 8.0 | 0.0 | 0.00 | 0.00 | 0.00 | 41 | 995.4 |
| 20260503223044 | 68 | 327 | 11.0 | 0.0 | 0.00 | 0.00 | 0.00 | 40 | 995.7 |
| 20260503221549 | 69 | 293 | 10.0 | 0.0 | 0.00 | 0.00 | 0.00 | 37 | 995.8 |
| 20260503220043 | 69 | 302 | 17.0 | 0.0 | 0.00 | 0.00 | 0.00 | 38 | 995.8 |
| 20260503214539 | 72 | 265 | 11.0 | 0.0 | 0.00 | 0.00 | 0.00 | 28 | 996.2 |
| 20260503213038 | 74 | 221 | 13.0 | 0.0 | 0.00 | 0.00 | 0.00 | 27 | 996.3 |
| 20260503211535 | 75 | 269 | 12.0 | 0.0 | 0.00 | 0.00 | 0.00 | 27 | 996.5 |
| 20260503210044 | 74 | 295 | 10.0 | 0.0 | 0.00 | 0.00 | 0.00 | 28 | 997.0 |
| 20260503204530 | 73 | 221 | 11.0 | 0.0 | 0.00 | 0.00 | 0.00 | 29 | 997.5 |
| 20260503203028 | 72 | 222 | 9.0 | 0.0 | 0.00 | 0.00 | 0.00 | 28 | 998.0 |
| 20260503201532 | 71 | 194 | 9.0 | 0.0 | 0.00 | 0.00 | 0.00 | 29 | 998.6 |
| 20260503200023 | 73 | 246 | 12.0 | 0.0 | 0.00 | 0.00 | 0.00 | 28 | 999.0 |
| 20260503194519 | 72 | 246 | 10.0 | 0.0 | 0.00 | 0.00 | 0.00 | 28 | 999.3 |
| 20260503193017 | 70 | 249 | 10.0 | 0.0 | 0.00 | 0.00 | 0.00 | 28 | 999.9 |
| 20260503191515 | 71 | 240 | 9.0 | 0.0 | 0.00 | 0.00 | 0.00 | 29 | 1000.0 |
| 20260503190013 | 71 | 288 | 8.0 | 0.0 | 0.00 | 0.00 | 0.00 | 30 | 1000.4 |
| 20260503184517 | 69 | 234 | 8.0 | 0.0 | 0.00 | 0.00 | 0.00 | 29 | 1000.6 |
| 20260503183009 | 70 | 289 | 7.0 | 0.0 | 0.00 | 0.00 | 0.00 | 30 | 1001.3 |
| 20260503181507 | 71 | 265 | 9.0 | 0.0 | 0.00 | 0.00 | 0.00 | 29 | 1001.5 |
| 20260503180005 | 71 | 269 | 9.0 | 0.0 | 0.00 | 0.00 | 0.00 | 29 | 1002.1 |
| 20260503174502 | 70 | 256 | 9.0 | 0.0 | 0.00 | 0.00 | 0.00 | 29 | 1002.5 |
| 20260503173154 | 70 | 269 | 8.0 | 0.0 | 0.00 | 0.00 | 0.00 | 29 | 1002.9 |
| 20260503171554 | 69 | 257 | 8.0 | 0.0 | 0.00 | 0.00 | 0.00 | 31 | 1003.4 |
| 20260503081512 | 28 | 325 | 0.0 | 0.0 | 0.00 | 0.00 | 0.00 | 82 | 1010.5 |
| 20260503071501 | 31 | 325 | 0.0 | 0.0 | 0.00 | 0.00 | 0.00 | 81 | 1010.5 |
| 20260503054553 | 33 | 325 | 0.0 | 0.0 | 0.00 | 0.00 | 0.00 | 77 | 1010.8 |
| 20260503053049 | 33 | 325 | 0.0 | 0.0 | 0.00 | 0.00 | 0.00 | 76 | 1010.8 |
| 20260503051547 | 34 | 326 | 0.0 | 0.0 | 0.00 | 0.00 | 0.00 | 75 | 1010.9 |